Location: Ay?beleni
(36.6500°N, 30.3000°E)
Time: 04:26:01
(UTC+00:00)

SKYMED 2 - Pass Details

Date: 16 October 2021
Orbit: 621 x 623 km, 97.9° (Epoch: 08 December)

Event Time Altitude Azimuth Distance (km) Brightness Sun altitude
Rises 16:16:59 0° 7° (N) 2,910 6.9 -12.0°
Reaches altitude 10° 16:19:12 10° 4° (N) 1,999 6.1 -12.4°
Maximum altitude 16:23:29 60° 285° (WNW) 717 4.2 -13.3°
Drops below altitude 10° 16:27:44 10° 206° (SSW) 1,984 6.5 -14.1°
Sets 16:29:55 0° 202° (SSW) 2,886 7.3 -14.6°
